EW0349 Weather Reports


time (UTC)temp
C
wind
direction
speed
KPH
gust
KPH
rain 1hr
cm
rain 24hr
cm
rain mn
cm
humidity
%
barometer
mb
20260506014601 17 86 1.6 6.4 0.00 0.00 0.00 65 1014.9
20260506013107 17 104 1.6 4.8 0.00 0.00 0.00 63 1014.9
20260506011607 18 105 0.0 6.4 0.00 0.00 0.00 63 1014.9
20260506010057 18 116 0.0 4.8 0.00 0.00 0.00 63 1014.9
20260506004555 18 116 0.0 4.8 0.00 0.00 0.00 64 1014.9
20260506003055 17 111 0.0 6.4 0.00 0.00 0.00 63 1014.9
20260506001554 17 30 0.0 3.2 0.00 0.00 0.00 64 1014.9
20260506000053 17 19 0.0 4.8 0.00 0.00 0.00 64 1015.1
20260505234602 17 99 1.6 4.8 0.00 0.00 0.00 63 1015.2
20260505233050 17 77 1.6 4.8 0.00 0.00 0.00 63 1015.4
20260505231603 16 81 1.6 6.4 0.00 0.00 0.00 64 1015.4
20260505230051 16 111 0.0 4.8 0.00 0.00 0.00 64 1015.5
20260505224546 16 65 1.6 6.4 0.00 0.00 0.00 64 1015.6
20260505223043 16 290 1.6 6.4 0.00 0.00 0.00 64 1015.7
20260505221541 16 279 3.2 8.0 0.00 0.00 0.00 65 1015.8
20260505220042 16 273 3.2 6.4 0.00 0.00 0.00 64 1016.0
20260505214601 16 275 1.6 6.4 0.00 0.00 0.00 65 1016.0
20260505213039 15 275 0.0 6.4 0.00 0.00 0.00 65 1016.0
20260505211537 15 307 0.0 4.8 0.00 0.00 0.00 64 1016.1
20260505210037 15 181 0.0 6.4 0.00 0.00 0.00 64 1016.2
20260505204535 15 284 1.6 6.4 0.00 0.00 0.00 65 1016.2
20260505203034 15 186 1.6 4.8 0.00 0.00 0.00 64 1016.3
20260505201530 15 146 0.0 3.2 0.00 0.00 0.00 64 1016.3
20260505200040 15 146 0.0 4.8 0.00 0.00 0.00 64 1016.4
20260505194528 14 126 1.6 4.8 0.00 0.00 0.00 64 1016.4
20260505193027 14 360 0.0 6.4 0.00 0.00 0.00 64 1016.4
20260505191525 14 286 0.0 6.4 0.00 0.00 0.00 64 1016.5
20260505190028 14 312 1.6 6.4 0.00 0.00 0.00 64 1016.5
20260505184523 14 360 1.6 3.2 0.00 0.00 0.00 63 1016.4
20260505183028 13 350 0.0 3.2 0.00 0.00 0.00 63 1016.5
20260505181520 13 350 0.0 4.8 0.00 0.00 0.00 63 1016.5
20260505180023 13 232 0.0 4.8 0.00 0.00 0.00 63 1016.4
20260505174518 13 161 0.0 3.2 0.00 0.00 0.00 61 1016.3
20260505173015 13 184 0.0 3.2 0.00 0.00 0.00 61 1016.2
20260505171511 12 185 0.0 4.8 0.00 0.00 0.00 61 1016.1
20260505170010 12 152 1.6 4.8 0.00 0.00 0.00 61 1016.2
20260505164509 12 188 3.2 8.0 0.00 0.00 0.00 60 1016.2
20260505163012 12 23 0.0 1.6 0.00 0.00 0.00 54 1016.0
20260505161504 12 215 0.0 4.8 0.00 0.00 0.00 55 1016.0
20260505153108 11 204 0.0 3.2 0.00 0.00 0.00 49 1016.0
20260505151607 11 206 0.0 3.2 0.00 0.00 0.00 47 1015.9
20260505140109 11 180 0.0 1.6 0.00 0.00 0.00 40 1015.3
20260505124544 11 198 0.0 4.8 0.00 0.00 0.00 38 1014.9
20260505123049 10 293 0.0 1.6 0.00 0.00 0.00 37 1014.9
20260505121542 11 231 0.0 3.2 0.00 0.00 0.00 37 1014.9
20260505120047 11 217 0.0 1.6 0.00 0.00 0.00 36 1014.8
20260505114545 11 231 0.0 4.8 0.00 0.00 0.00 37 1014.8
20260505113038 11 277 0.0 4.8 0.00 0.00 0.00 38 1014.8
20260505111536 11 164 0.0 3.2 0.00 0.00 0.00 38 1014.7
20260505101542 10 148 0.0 4.8 0.00 0.00 0.00 36 1014.4
20260505100034 10 136 0.0 1.6 0.00 0.00 0.00 34 1014.4
20260505094536 10 136 0.0 3.2 0.00 0.00 0.00 32 1014.4
20260505093031 10 136 0.0 3.2 0.00 0.00 0.00 27 1014.2
20260505091526 10 136 0.0 3.2 0.00 0.00 0.00 26 1014.1
20260505090025 10 136 0.0 1.6 0.00 0.00 0.00 23 1014.1
20260505084525 10 136 0.0 1.6 0.00 0.00 0.00 25 1014.2
20260505083023 10 136 0.0 6.4 0.00 0.00 0.00 27 1014.0
20260505081520 10 209 0.0 1.6 0.00 0.00 0.00 29 1013.9
20260505080018 10 210 0.0 3.2 0.00 0.00 0.00 31 1013.9
20260505074517 10 211 0.0 1.6 0.00 0.00 0.00 34 1013.9
20260505073014 10 211 0.0 0.0 0.00 0.00 0.00 42 1013.8
20260505071527 10 211 0.0 0.0 0.00 0.00 0.00 47 1013.6
20260505070008 10 211 0.0 0.0 0.00 0.00 0.00 51 1013.4
20260505064508 11 211 0.0 1.6 0.00 0.00 0.00 56 1013.3
20260505063007 11 212 0.0 1.6 0.00 0.00 0.00 58 1013.2
20260505061505 11 209 0.0 4.8 0.00 0.00 0.00 60 1013.1
20260505060011 11 205 0.0 6.4 0.00 0.00 0.00 61 1013.2
20260505054504 11 285 0.0 3.2 0.00 0.00 0.00 62 1013.2
20260505053003 11 223 0.0 4.8 0.00 0.00 0.00 63 1013.2
20260505051506 11 215 1.6 6.4 0.00 0.00 0.00 64 1013.1
20260505041604 13 183 1.6 6.4 0.00 0.00 0.00 67 1012.3
20260505040101 13 186 0.0 3.2 0.00 0.00 0.00 68 1012.1
20260505034559 14 245 0.0 3.2 0.00 0.00 0.00 69 1011.8
20260505034501 14 245 0.0 3.2 0.00 0.00 0.00 69 1011.8
20260505033100 15 280 1.6 3.2 0.00 0.00 0.00 69 1011.5
20260505031601 15 273 1.6 6.4 0.00 0.00 0.00 69 1011.3
20260505030058 16 286 1.6 6.4 0.00 0.00 0.00 69 1011.1
20260505024606 16 286 3.2 9.7 0.00 0.00 0.00 68 1010.8
20260505023104 17 273 0.0 6.4 0.00 0.00 0.00 67 1010.6
20260505021557 18 188 3.2 14.5 0.00 0.00 0.00 64 1010.6
20260505020058 20 185 1.6 9.7 0.00 0.00 0.00 63 1010.5